Location: *
(33.3200°N, 8.3381°W)
Time: 14:00:07
(UTC+00:00)

COSMOS 2455 - Pass Details

Date: 09 April 2020
Orbit: 899 x 910 km, 67.1° (Epoch: 05 June)

Event Time Altitude Azimuth Distance (km) Brightness Sun altitude
Rises 20:03:37 0° 346° (NNW) 3,540 6.4 -13.7°
Reaches altitude 10° 20:06:33 10° 358° (N) 2,597 5.5 -14.3°
Maximum altitude 20:11:35 27° 55° (NE) 1,678 3.9 -15.3°
Enters shadow 20:13:56 21° 90° (E) 1,916 4.0 -15.7°
